TimeEST,TemperatureF,Dew PointF,Humidity,Sea Level PressureIn,VisibilityMPH,Wind Direction,Wind SpeedMPH,Gust SpeedMPH,PrecipitationIn,Events,Conditions,WindDirDegrees,DateUTC
12:15 AM,35.6,30.2,81,30.27,7.0,Calm,Calm,-,N/A,,Overcast,0,2013-02-23 05:15:00
12:35 AM,35.6,30.2,81,30.27,7.0,Calm,Calm,-,N/A,,Overcast,0,2013-02-23 05:35:00
12:55 AM,35.6,32.0,87,30.26,5.0,Calm,Calm,-,N/A,,Overcast,0,2013-02-23 05:55:00
1:15 AM,35.6,32.0,87,30.26,4.0,Calm,Calm,-,N/A,,Overcast,0,2013-02-23 06:15:00
1:35 AM,35.6,32.0,87,30.24,3.0,NNE,3.5,-,N/A,,Overcast,30,2013-02-23 06:35:00
1:55 AM,35.6,32.0,87,30.24,2.5,NNE,4.6,-,N/A,,Overcast,30,2013-02-23 06:55:00
2:15 AM,35.6,32.0,87,30.23,3.0,NE,3.5,-,N/A,,Overcast,40,2013-02-23 07:15:00
2:35 AM,35.6,32.0,87,30.21,2.0,Calm,Calm,-,N/A,,Overcast,0,2013-02-23 07:35:00
2:55 AM,35.6,33.8,93,30.20,2.5,NNE,3.5,-,N/A,,Overcast,30,2013-02-23 07:55:00
3:15 AM,35.6,33.8,93,30.19,2.0,NE,3.5,-,N/A,,Overcast,40,2013-02-23 08:15:00
3:35 AM,35.6,33.8,93,30.20,1.8,NNE,3.5,-,N/A,,Overcast,20,2013-02-23 08:35:00
3:55 AM,35.6,33.8,93,30.19,1.8,NNE,3.5,-,N/A,,Overcast,30,2013-02-23 08:55:00
4:15 AM,35.6,33.8,93,30.18,2.0,NNE,3.5,-,N/A,,Overcast,30,2013-02-23 09:15:00
4:35 AM,35.6,33.8,93,30.18,1.8,NE,3.5,-,N/A,,Overcast,40,2013-02-23 09:35:00
4:55 AM,35.6,33.8,93,30.17,1.8,NE,4.6,-,N/A,,Overcast,40,2013-02-23 09:55:00
5:15 AM,35.6,33.8,93,30.17,1.5,NNE,3.5,-,N/A,,Overcast,20,2013-02-23 10:15:00
5:35 AM,35.6,33.8,93,30.17,2.0,NE,3.5,-,N/A,,Overcast,40,2013-02-23 10:35:00
6:45 AM,33.8,33.8,100,30.16,1.0,NNE,4.6,-,N/A,Rain,Light Rain,30,2013-02-23 11:45:00
7:45 AM,33.8,33.8,100,30.14,1.0,NE,3.5,-,N/A,,Overcast,50,2013-02-23 12:45:00
8:45 AM,35.6,33.8,93,30.14,1.0,NNE,4.6,-,N/A,,Overcast,30,2013-02-23 13:45:00
9:45 AM,35.6,35.6,100,30.10,1.0,NE,5.8,-,N/A,,Overcast,40,2013-02-23 14:45:00
10:45 AM,35.6,35.6,100,30.09,1.0,NE,3.5,-,N/A,,Overcast,40,2013-02-23 15:45:00
11:45 AM,37.4,35.6,93,30.04,1.5,NNE,6.9,-,N/A,Rain,Light Rain,30,2013-02-23 16:45:00
12:45 PM,39.2,37.4,93,30.01,1.0,NE,4.6,-,N/A,,Drizzle,40,2013-02-23 17:45:00
1:45 PM,39.2,37.4,93,29.99,1.0,NNE,5.8,-,N/A,,Drizzle,30,2013-02-23 18:45:00
2:45 PM,39.2,39.2,100,29.97,1.0,NNE,6.9,-,N/A,,Drizzle,30,2013-02-23 19:45:00
5:45 PM,39.2,39.2,100,29.92,1.5,ENE,9.2,-,N/A,,Drizzle,60,2013-02-23 22:45:00
6:45 PM,39.2,37.4,93,29.93,1.5,East,6.9,-,N/A,,Drizzle,80,2013-02-23 23:45:00
7:45 PM,37.4,35.6,93,29.91,3.0,ENE,9.2,-,N/A,,Drizzle,70,2013-02-24 00:45:00
8:45 PM,37.4,35.6,93,29.90,1.5,NE,6.9,-,N/A,,Overcast,50,2013-02-24 01:45:00
9:45 PM,35.6,35.6,100,29.87,1.5,NE,5.8,-,N/A,,Overcast,50,2013-02-24 02:45:00
9:55 PM,39.2,35.6,87,29.86,2.5,NNE,5.8,-,N/A,,Overcast,30,2013-02-24 02:55:00
10:15 PM,39.2,35.6,87,29.86,2.5,North,5.8,-,N/A,,Light Drizzle,10,2013-02-24 03:15:00
10:35 PM,39.2,35.6,87,29.85,2.5,North,5.8,-,N/A,,Light Drizzle,10,2013-02-24 03:35:00
10:55 PM,39.2,35.6,87,29.85,3.0,North,4.6,-,N/A,,Overcast,10,2013-02-24 03:55:00
11:15 PM,39.2,35.6,87,29.83,3.0,NNE,6.9,-,N/A,,Overcast,20,2013-02-24 04:15:00
11:35 PM,39.2,35.6,87,29.82,4.0,NNE,5.8,-,N/A,,Overcast,20,2013-02-24 04:35:00
11:55 PM,39.2,35.6,87,29.82,5.0,NNE,5.8,-,N/A,,Overcast,20,2013-02-24 04:55:00